| time (UTC) | temp F | wind direction | speed MPH | gust MPH | rain 1hr in | rain 24hr in | rain mn in | humidity % | barometer mb |
| 20260507145833 | 73 | 299 | 2.0 | 7.0 | 0.00 | 0.09 | 0.02 | 50 | 1013.9 |
| 20260507144933 | 72 | 30 | 4.0 | 7.0 | 0.00 | 0.09 | 0.02 | 46 | 1013.9 |
| 20260507144033 | 74 | 304 | 4.0 | 7.0 | 0.00 | 0.09 | 0.02 | 47 | 1014.1 |
| 20260507143134 | 72 | 273 | 4.0 | 6.0 | 0.00 | 0.09 | 0.02 | 52 | 1014.2 |
| 20260507142233 | 71 | 317 | 3.0 | 8.0 | 0.00 | 0.09 | 0.02 | 55 | 1014.3 |
| 20260507141334 | 69 | 10 | 3.0 | 5.0 | 0.00 | 0.09 | 0.02 | 52 | 1014.3 |
| 20260507140433 | 72 | 75 | 2.0 | 8.0 | 0.00 | 0.09 | 0.02 | 50 | 1014.4 |
| 20260507135533 | 73 | 329 | 3.0 | 6.0 | 0.00 | 0.09 | 0.02 | 53 | 1014.5 |
| 20260507134633 | 71 | 347 | 2.0 | 8.0 | 0.00 | 0.09 | 0.02 | 56 | 1014.7 |
| 20260507133733 | 70 | 317 | 3.0 | 6.0 | 0.00 | 0.09 | 0.02 | 57 | 1014.9 |
| 20260507132833 | 70 | 293 | 3.0 | 8.0 | 0.00 | 0.09 | 0.02 | 61 | 1014.9 |
| 20260507130133 | 70 | 59 | 5.0 | 7.0 | 0.00 | 0.13 | 0.02 | 57 | 1015.1 |
| 20260507125233 | 72 | 317 | 4.0 | 8.0 | 0.00 | 0.13 | 0.02 | 61 | 1015.2 |
| 20260507124334 | 71 | 291 | 6.0 | 8.0 | 0.00 | 0.14 | 0.02 | 60 | 1015.2 |
| 20260507123433 | 71 | 339 | 3.0 | 8.0 | 0.00 | 0.14 | 0.02 | 61 | 1015.4 |
| 20260507122534 | 69 | 284 | 3.0 | 7.0 | 0.00 | 0.14 | 0.02 | 62 | 1015.3 |
| 20260507121633 | 69 | 255 | 5.0 | 7.0 | 0.00 | 0.15 | 0.02 | 63 | 1015.4 |
| 20260507120733 | 69 | 130 | 2.0 | 3.0 | 0.00 | 0.17 | 0.02 | 66 | 1015.6 |
| 20260507114033 | 65 | 57 | 3.0 | 7.0 | 0.00 | 0.19 | 0.02 | 63 | 1015.7 |
| 20260507113133 | 66 | 336 | 2.0 | 4.0 | 0.00 | 0.19 | 0.02 | 65 | 1015.8 |
| 20260507112234 | 69 | 352 | 3.0 | 4.0 | 0.00 | 0.19 | 0.02 | 68 | 1015.9 |
| 20260507111334 | 66 | 328 | 2.0 | 4.0 | 0.00 | 0.19 | 0.02 | 70 | 1016.0 |
| 20260507110433 | 65 | 342 | 3.0 | 5.0 | 0.00 | 0.19 | 0.02 | 67 | 1016.2 |
| 20260507105533 | 67 | 2 | 2.0 | 7.0 | 0.00 | 0.19 | 0.02 | 69 | 1016.2 |
| 20260507103734 | 65 | 44 | 5.0 | 7.0 | 0.00 | 0.21 | 0.02 | 70 | 1016.3 |
| 20260507102834 | 66 | 322 | 3.0 | 5.0 | 0.00 | 0.21 | 0.02 | 76 | 1016.3 |
| 20260507101934 | 66 | 359 | 2.0 | 4.0 | 0.00 | 0.22 | 0.02 | 81 | 1016.4 |
| 20260507101033 | 64 | 73 | 2.0 | 4.0 | 0.00 | 0.25 | 0.02 | 83 | 1016.3 |
| 20260507100134 | 63 | 348 | 3.0 | 4.0 | 0.00 | 0.25 | 0.02 | 90 | 1016.4 |
| 20260507095235 | 62 | 270 | 2.0 | 4.0 | 0.00 | 0.25 | 0.02 | 92 | 1016.6 |
| 20260507093434 | 58 | 286 | 2.0 | 4.0 | 0.00 | 0.25 | 0.02 | 92 | 1016.6 |
| 20260507092534 | 57 | 291 | 2.0 | 5.0 | 0.00 | 0.25 | 0.02 | 93 | 1016.6 |
| 20260507090734 | 57 | 270 | 4.0 | 5.0 | 0.00 | 0.25 | 0.02 | 95 | 1016.3 |
| 20260507085834 | 57 | 293 | 2.0 | 5.0 | 0.00 | 0.25 | 0.02 | 95 | 1016.2 |
| 20260507084933 | 56 | 278 | 2.0 | 6.0 | 0.00 | 0.25 | 0.02 | 96 | 1016.2 |
| 20260507084033 | 56 | 293 | 3.0 | 7.0 | 0.00 | 0.25 | 0.02 | 96 | 1016.3 |
| 20260507083133 | 56 | 312 | 2.0 | 4.0 | 0.00 | 0.25 | 0.02 | 96 | 1016.2 |
| 20260507082233 | 56 | 343 | 2.0 | 4.0 | 0.00 | 0.25 | 0.02 | 96 | 1016.2 |
| 20260507081333 | 56 | 355 | 2.0 | 4.0 | 0.00 | 0.25 | 0.02 | 97 | 1016.1 |
| 20260507075534 | 55 | 331 | 1.0 | 2.0 | 0.01 | 0.25 | 0.02 | 97 | 1016.0 |
| 20260507074634 | 54 | 321 | 0.0 | 4.0 | 0.01 | 0.25 | 0.02 | 99 | 1016.0 |
| 20260507073734 | 54 | 312 | 2.0 | 6.0 | 0.01 | 0.25 | 0.02 | 99 | 1015.9 |
| 20260507072834 | 54 | 316 | 2.0 | 4.0 | 0.01 | 0.25 | 0.02 | 99 | 1016.0 |
| 20260507071934 | 54 | 324 | 2.0 | 3.0 | 0.01 | 0.25 | 0.02 | 99 | 1015.8 |
| 20260507070141 | 53 | 342 | 0.0 | 2.0 | 0.00 | 0.24 | 0.01 | 99 | 1015.7 |
| 20260507065233 | 53 | 357 | 0.0 | 2.0 | 0.00 | 0.24 | 0.01 | 99 | 1015.8 |
| 20260507064333 | 52 | 353 | 0.0 | 3.0 | 0.00 | 0.24 | 0.01 | 99 | 1015.7 |
| 20260507062534 | 52 | 312 | 1.0 | 4.0 | 0.00 | 0.24 | 0.01 | 99 | 1015.6 |
| 20260507061633 | 52 | 311 | 0.0 | 4.0 | 0.00 | 0.24 | 0.01 | 99 | 1015.6 |
| 20260507055833 | 51 | 314 | 2.0 | 4.0 | 0.00 | 0.24 | 0.01 | 99 | 1015.5 |
| 20260507054933 | 51 | 319 | 2.0 | 3.0 | 0.00 | 0.24 | 0.01 | 99 | 1015.3 |
| 20260507054033 | 51 | 323 | 1.0 | 3.0 | 0.00 | 0.24 | 0.01 | 98 | 1015.2 |
| 20260507053133 | 51 | 328 | 2.0 | 3.0 | 0.00 | 0.24 | 0.01 | 98 | 1015.2 |
| 20260507052234 | 51 | 318 | 2.0 | 4.0 | 0.00 | 0.24 | 0.01 | 98 | 1015.2 |
| 20260507051333 | 51 | 318 | 2.0 | 3.0 | 0.00 | 0.24 | 0.01 | 98 | 1015.0 |
| 20260507050433 | 51 | 332 | 2.0 | 3.0 | 0.00 | 0.24 | 0.01 | 98 | 1015.1 |
| 20260507045533 | 51 | 327 | 1.0 | 2.0 | 0.00 | 0.24 | 0.01 | 98 | 1015.1 |
| 20260507044633 | 51 | 327 | 2.0 | 2.0 | 0.00 | 0.24 | 0.01 | 98 | 1015.1 |
| 20260507043734 | 51 | 333 | 1.0 | 2.0 | 0.00 | 0.24 | 0.01 | 98 | 1015.0 |
| 20260507042834 | 51 | 328 | 1.0 | 3.0 | 0.00 | 0.24 | 0.01 | 98 | 1015.1 |
| 20260507041933 | 51 | 308 | 2.0 | 3.0 | 0.00 | 0.24 | 0.01 | 98 | 1015.1 |
| 20260507040133 | 51 | 319 | 0.0 | 4.0 | 0.00 | 0.24 | 0.01 | 98 | 1015.0 |
| 20260507034333 | 51 | 0 | 0.0 | 0.0 | 0.00 | 0.24 | 0.01 | 98 | 1015.1 |
| 20260507033433 | 51 | 329 | 0.0 | 2.0 | 0.00 | 0.24 | 0.01 | 98 | 1015.0 |
| 20260507032533 | 52 | 324 | 2.0 | 3.0 | 0.00 | 0.24 | 0.01 | 98 | 1015.1 |
| 20260507031633 | 52 | 308 | 2.0 | 4.0 | 0.00 | 0.24 | 0.01 | 98 | 1015.0 |
| 20260507030733 | 52 | 319 | 2.0 | 2.0 | 0.00 | 0.24 | 0.01 | 98 | 1015.0 |
| 20260507025833 | 52 | 340 | 2.0 | 2.0 | 0.00 | 0.24 | 0.01 | 98 | 1014.9 |
| 20260507024933 | 52 | 334 | 1.0 | 2.0 | 0.00 | 0.24 | 0.01 | 98 | 1015.1 |
| 20260507024033 | 52 | 320 | 2.0 | 4.0 | 0.00 | 0.24 | 0.01 | 98 | 1015.1 |
| 20260507023133 | 52 | 314 | 2.0 | 4.0 | 0.00 | 0.24 | 0.01 | 98 | 1015.1 |
| 20260507022233 | 52 | 320 | 3.0 | 4.0 | 0.00 | 0.24 | 0.01 | 98 | 1015.1 |
| 20260507021333 | 52 | 314 | 2.0 | 5.0 | 0.00 | 0.24 | 0.01 | 98 | 1015.1 |
| 20260507020434 | 52 | 317 | 2.0 | 3.0 | 0.00 | 0.24 | 0.01 | 98 | 1014.9 |
| 20260507015533 | 52 | 325 | 2.0 | 4.0 | 0.00 | 0.24 | 0.01 | 98 | 1014.9 |
| 20260507014634 | 52 | 323 | 1.0 | 6.0 | 0.00 | 0.24 | 0.01 | 98 | 1014.9 |
| 20260507013733 | 52 | 291 | 4.0 | 8.0 | 0.00 | 0.24 | 0.01 | 98 | 1014.8 |
| 20260507012833 | 52 | 307 | 5.0 | 7.0 | 0.00 | 0.24 | 0.01 | 98 | 1014.9 |
| 20260507011934 | 52 | 306 | 4.0 | 6.0 | 0.00 | 0.24 | 0.01 | 98 | 1014.9 |
| 20260507011034 | 52 | 307 | 3.0 | 6.0 | 0.00 | 0.24 | 0.01 | 98 | 1014.8 |
| 20260507005233 | 52 | 320 | 3.0 | 5.0 | 0.00 | 0.24 | 0.01 | 98 | 1015.0 |
| 20260507004333 | 52 | 313 | 4.0 | 6.0 | 0.00 | 0.24 | 0.01 | 98 | 1015.0 |
| 20260507002533 | 52 | 317 | 4.0 | 7.0 | 0.00 | 0.24 | 0.01 | 98 | 1015.1 |
| 20260507001633 | 52 | 299 | 4.0 | 6.0 | 0.00 | 0.24 | 0.01 | 97 | 1015.0 |
| 20260507000733 | 52 | 310 | 4.0 | 6.0 | 0.00 | 0.24 | 0.01 | 97 | 1015.0 |
| 20260506235834 | 52 | 290 | 4.0 | 7.0 | 0.00 | 0.24 | 0.01 | 97 | 1015.3 |
| 20260506234933 | 52 | 313 | 4.0 | 5.0 | 0.01 | 0.24 | 0.01 | 97 | 1015.3 |
| 20260506234033 | 52 | 308 | 4.0 | 5.0 | 0.01 | 0.24 | 0.01 | 97 | 1015.2 |
| 20260506231333 | 52 | 307 | 4.0 | 8.0 | 0.01 | 0.24 | 0.01 | 97 | 1015.3 |
| 20260506230433 | 52 | 296 | 5.0 | 8.0 | 0.01 | 0.24 | 0.01 | 97 | 1015.3 |
| 20260506225533 | 52 | 304 | 3.0 | 10.0 | 0.00 | 0.22 | 0.00 | 97 | 1015.2 |
| 20260506224633 | 52 | 297 | 8.0 | 10.0 | 0.00 | 0.22 | 0.00 | 97 | 1015.3 |
| 20260506223733 | 52 | 296 | 6.0 | 8.0 | 0.00 | 0.22 | 0.00 | 97 | 1015.2 |
| 20260506222833 | 52 | 293 | 5.0 | 10.0 | 0.00 | 0.22 | 0.00 | 97 | 1015.2 |
| 20260506221933 | 52 | 295 | 7.0 | 10.0 | 0.00 | 0.22 | 0.00 | 97 | 1015.1 |
| 20260506221033 | 52 | 303 | 5.0 | 7.0 | 0.00 | 0.22 | 0.00 | 97 | 1015.1 |
| 20260506220134 | 52 | 299 | 5.0 | 8.0 | 0.00 | 0.22 | 0.00 | 96 | 1015.1 |
| 20260506215233 | 52 | 291 | 4.0 | 9.0 | 0.00 | 0.22 | 0.22 | 96 | 1015.0 |
| 20260506213434 | 52 | 286 | 8.0 | 8.0 | 0.00 | 0.22 | 0.22 | 96 | 1015.0 |
| 20260506211633 | 52 | 297 | 7.0 | 9.0 | 0.00 | 0.22 | 0.22 | 96 | 1014.8 |
| 20260506210733 | 52 | 282 | 6.0 | 9.0 | 0.00 | 0.22 | 0.22 | 96 | 1014.7 |
| 20260506204934 | 52 | 285 | 5.0 | 9.0 | 0.00 | 0.22 | 0.22 | 95 | 1014.8 |
| 20260506203134 | 53 | 296 | 8.0 | 11.0 | 0.00 | 0.22 | 0.22 | 95 | 1014.5 |
| 20260506202233 | 53 | 292 | 6.0 | 8.0 | 0.00 | 0.22 | 0.22 | 95 | 1014.6 |
| 20260506201333 | 53 | 292 | 7.0 | 8.0 | 0.00 | 0.22 | 0.22 | 95 | 1014.5 |
| 20260506200434 | 53 | 292 | 6.0 | 10.0 | 0.00 | 0.22 | 0.22 | 95 | 1014.4 |
| 20260506195534 | 53 | 278 | 8.0 | 10.0 | 0.00 | 0.22 | 0.22 | 95 | 1014.2 |
| 20260506194633 | 53 | 289 | 8.0 | 9.0 | 0.00 | 0.22 | 0.22 | 94 | 1014.0 |
| 20260506193733 | 53 | 276 | 8.0 | 11.0 | 0.00 | 0.22 | 0.22 | 94 | 1013.9 |
| 20260506192833 | 53 | 278 | 6.0 | 12.0 | 0.00 | 0.22 | 0.22 | 94 | 1013.8 |
| 20260506190133 | 53 | 282 | 8.0 | 17.0 | 0.00 | 0.22 | 0.22 | 93 | 1013.5 |
| 20260506184334 | 54 | 272 | 8.0 | 10.0 | 0.00 | 0.22 | 0.22 | 93 | 1013.4 |
| 20260506183434 | 54 | 288 | 7.0 | 10.0 | 0.01 | 0.22 | 0.22 | 93 | 1013.3 |
| 20260506182534 | 54 | 289 | 5.0 | 12.0 | 0.01 | 0.22 | 0.22 | 93 | 1013.2 |
| 20260506181634 | 54 | 276 | 9.0 | 12.0 | 0.01 | 0.22 | 0.22 | 93 | 1013.2 |
| 20260506180733 | 54 | 274 | 7.0 | 8.0 | 0.01 | 0.22 | 0.22 | 93 | 1013.1 |
| 20260506175833 | 54 | 270 | 4.0 | 10.0 | 0.01 | 0.22 | 0.22 | 92 | 1013.0 |
| 20260506174934 | 54 | 272 | 8.0 | 12.0 | 0.01 | 0.22 | 0.22 | 92 | 1012.9 |
| 20260506174033 | 54 | 283 | 6.0 | 8.0 | 0.02 | 0.22 | 0.22 | 92 | 1012.7 |
| 20260506172233 | 54 | 285 | 7.0 | 10.0 | 0.05 | 0.21 | 0.21 | 91 | 1012.7 |
| 20260506171333 | 54 | 281 | 6.0 | 13.0 | 0.05 | 0.21 | 0.21 | 91 | 1012.7 |
| 20260506170434 | 54 | 263 | 6.0 | 11.0 | 0.05 | 0.21 | 0.21 | 91 | 1012.6 |
| 20260506165533 | 54 | 272 | 4.0 | 11.0 | 0.05 | 0.21 | 0.21 | 90 | 1012.5 |
| 20260506164633 | 54 | 279 | 5.0 | 11.0 | 0.05 | 0.21 | 0.21 | 89 | 1012.6 |
| 20260506163733 | 54 | 288 | 7.0 | 12.0 | 0.02 | 0.19 | 0.19 | 88 | 1012.5 |
| 20260506162833 | 55 | 273 | 8.0 | 15.0 | 0.00 | 0.17 | 0.17 | 84 | 1012.5 |
| 20260506161934 | 56 | 278 | 8.0 | 13.0 | 0.01 | 0.17 | 0.17 | 84 | 1012.3 |
| 20260506161034 | 56 | 277 | 8.0 | 10.0 | 0.01 | 0.17 | 0.17 | 84 | 1012.4 |
| 20260506155234 | 55 | 275 | 9.0 | 11.0 | 0.01 | 0.17 | 0.17 | 82 | 1012.5 |
| 20260506154333 | 55 | 270 | 7.0 | 11.0 | 0.01 | 0.17 | 0.17 | 81 | 1012.5 |
| 20260506153433 | 56 | 257 | 6.0 | 11.0 | 0.01 | 0.32 | 0.17 | 80 | 1012.5 |
| 20260506152534 | 57 | 282 | 4.0 | 8.0 | 0.01 | 0.32 | 0.17 | 79 | 1012.5 |
| 20260506150733 | 59 | 270 | 4.0 | 10.0 | 0.00 | 0.31 | 0.15 | 79 | 1012.3 |